Wind_Speed
6 5 3 2 1 2 3 4 4 3 1 1 2 4 5 3 2 0 1 2 3 4 5 6 7 8 10 11 10 8 6 5 5 7 7 6 7 7 6 5 5 6 6 6 7 6 6 6 7 7 6 5 4 4 4 2 4 5 3 2 3 3 4 6 7 7 4 2 3 6 11 9 3 6 8 6 7 11 11 14 15 15 17 18 16 12 9 7
6 5 3 3 3 4 4 5 5 4 1 1 3 4 3 2 1 1 2 3 4 5 5 6 7 9 11 12 11 7 6 5 6 7 8 7 7 5 4 5 6 6 6 6 6 6 6 7 7 7 7 6 4 5 5 3 4 4 3 2 5 5 6 5 7 8 5 1 3 4 9 11 6 4 6 5 5 8 8 11 14 17 19 21 21 18 15 11
6 5 4 4 4 4 4 5 4 3 2 1 2 3 2 1 2 2 4 5 6 6 6 6 7 9 11 12 11 6 5 6 6 7 7 7 7 5 4 4 5 6 6 6 6 5 5 6 7 7 7 6 5 5 5 4 3 3 3 2 7 6 4 5 7 8 7 4 1 3 7 11 10 6 5 4 4 5 8 10 12 18 21 21 22 20 17 14
6 5 5 5 5 5 5 5 5 3 2 0 2 2 2 3 3 5 7 7 7 7 6 6 8 10 11 11 10 5 6 6 4 6 7 8 7 6 6 6 5 5 6 6 6 6 5 5 5 5 5 5 4 5 5 4 3 3 5 4 5 5 2 5 7 7 7 5 3 4 5 7 11 9 8 4 2 6 9 10 11 14 16 16 20 20 18 16
6 7 7 7 6 5 5 5 5 4 2 1 2 2 3 4 6 7 8 8 8 7 7 8 10 11 11 10 8 6 6 3 4 8 8 8 8 8 8 8 7 6 6 7 7 6 6 5 4 4 4 3 3 3 4 5 4 3 5 5 3 5 2 3 4 6 7 5 4 6 5 4 6 8 11 8 5 8 6 5 7 7 7 8 12 15 17 16
7 8 8 8 7 6 5 6 5 5 4 4 4 5 5 6 8 9 9 9 8 7 8 10 11 12 11 8 6 6 4 1 5 9 8 9 8 9 9 9 8 7 7 7 7 7 7 6 5 4 3 1 4 4 3 5 5 3 4 4 3 5 3 2 2 5 6 5 4 4 4 3 3 4 8 12 16 16 12 11 11 9 6 7 8 10 13 13
7 8 8 8 8 7 6 6 6 6 5 5 6 7 7 8 9 9 10 9 9 9 10 11 12 12 11 8 6 5 4 3 7 8 8 9 9 9 10 10 9 8 8 8 8 7 6 6 5 4 1 1 3 4 2 3 5 4 4 3 3 6 6 4 3 5 5 5 5 3 3 3 3 4 4 13 22 20 18 18 19 17 12 10 10 9 9 9
5 6 7 8 8 8 7 7 7 7 7 6 6 7 7 8 9 9 10 10 10 10 11 11 11 12 11 9 5 5 6 5 7 7 8 9 10 11 9 9 10 9 9 8 8 6 6 6 6 4 2 1 3 3 1 2 2 4 4 3 2 5 6 6 5 6 5 5 5 3 5 4 4 5 6 18 26 19 14 13 15 18 18 14 11 9 8 8
3 4 5 6 7 8 8 8 8 7 7 7 7 7 7 8 9 9 10 11 11 10 11 12 11 11 10 8 7 5 5 6 8 8 8 8 10 11 9 9 10 10 9 8 7 5 5 4 4 4 3 2 3 2 1 1 3 2 4 4 2 3 4 5 6 6 6 5 4 4 5 4 3 4 8 17 16 8 6 8 12 12 16 16 12 10 8 6
4 5 5 6 7 7 9 9 9 8 8 8 8 8 8 8 8 9 11 12 12 11 10 11 11 11 9 8 7 3 4 8 8 8 8 9 10 11 10 10 10 10 8 7 6 5 3 3 3 3 3 2 2 1 0 2 2 3 3 5 4 5 6 6 6 5 5 5 4 4 4 4 1 1 7 8 3 5 9 11 12 8 11 14 12 10 7 4
5 6 6 6 7 8 10 11 11 10 9 9 8 8 8 8 9 9 11 12 13 11 10 10 11 10 8 7 5 2 6 9 8 8 9 9 10 10 10 9 9 9 8 7 5 5 4 3 3 3 3 1 0 1 1 1 3 5 5 7 6 7 9 6 6 6 4 3 3 2 4 5 1 1 11 12 7 11 13 10 8 6 8 11 10 8 5 5
6 7 7 6 7 8 11 13 13 11 10 10 10 9 9 8 8 9 10 11 12 11 9 10 10 9 8 7 5 3 6 7 7 9 10 10 10 10 10 9 9 8 8 7 6 5 5 4 4 4 2 1 1 1 1 1 2 4 5 5 8 9 8 4 3 4 3 1 1 1 4 5 3 8 12 10 8 8 7 6 7 4 6 9 9 7 6 6
6 7 7 7 8 9 11 14 13 10 11 12 12 12 11 10 9 9 10 10 11 10 9 9 9 9 8 6 5 4 6 6 7 9 10 11 10 10 10 9 9 8 8 8 7 6 5 5 4 2 2 1 1 0 1 2 2 3 3 2 6 8 6 4 4 1 4 1 1 3 4 6 6 11 11 10 8 8 7 7 6 3 3 6 7 7 7 6
6 7 7 7 8 9 11 13 11 10 12 14 13 13 12 11 10 9 10 9 10 9 8 8 8 8 7 6 5 6 6 6 8 9 10 9 8 9 8 8 10 9 8 8 7 7 5 5 4 2 0 1 1 1 2 4 4 2 2 2 3 3 5 6 3 3 4 1 2 4 3 6 9 11 12 12 8 8 8 5 5 3 2 6 8 9 8 7
7 7 7 7 8 10 10 10 9 10 13 14 13 13 12 10 8 8 8 8 8 7 7 9 8 7 7 6 6 6 6 6 9 11 12 9 8 8 6 8 10 9 8 8 6 6 5 4 3 2 2 2 2 2 3 5 4 3 2 4 3 1 6 8 3 3 3 0 2 3 3 6 9 6 12 18 16 14 11 8 4 1 5 9 9 10 10 11
7 7 8 8 9 9 9 9 9 11 13 14 13 12 10 8 6 5 6 7 7 7 9 8 7 6 5 5 6 7 8 9 11 13 12 10 9 9 10 10 9 9 7 6 6 5 5 4 2 3 2 1 2 4 4 5 4 4 1 4 4 1 4 6 3 1 1 1 1 1 3 5 4 1 12 21 22 19 16 13 6 5 8 12 14 15 18 20
7 7 8 8 9 9 9 9 10 13 14 14 13 9 7 7 6 4 5 8 7 7 6 4 5 5 2 5 6 9 13 13 13 12 10 9 10 10 11 11 9 7 7 6 6 5 5 3 1 1 3 3 2 5 4 5 4 4 2 2 4 3 3 4 4 3 2 2 2 1 3 7 7 4 17 25 24 20 16 12 5 9 14 18 22 25 28 29
7 7 8 8 9 10 11 11 12 14 15 15 12 7 8 9 6 2 7 10 7 5 2 3 7 2 1 8 8 13 18 14 11 9 9 10 11 11 12 11 9 7 6 4 4 3 3 2 2 0 4 4 2 5 1 5 3 3 3 3 4 3 3 4 4 2 1 1 2 2 4 9 9 10 21 26 21 15 11 6 4 15 21 25 29 32 33 34
7 7 8 8 9 11 12 13 13 14 16 16 12 7 9 11 4 1 8 10 6 4 1 5 8 2 2 8 11 17 17 10 9 9 10 12 11 12 11 11 8 6 3 1 2 3 2 2 3 1 2 3 1 5 6 7 5 3 4 3 4 5 4 5 6 3 1 1 3 5 6 7 9 11 18 24 20 11 5 6 13 21 26 28 31 33 35 36
7 7 8 8 9 10 11 13 14 14 15 16 15 9 8 11 3 1 9 9 9 7 3 5 8 4 5 7 12 21 15 6 8 11 11 13 13 11 9 9 6 4 3 1 2 3 4 2 2 4 6 6 5 6 5 3 3 2 1 2 4 5 6 5 4 5 1 1 4 3 2 5 9 9 14 20 20 17 12 14 18 22 26 28 31 34 35 35
7 7 7 8 10 10 11 12 13 15 15 15 16 11 8 9 4 3 7 7 9 9 6 8 8 7 8 6 13 22 14 5 7 12 13 13 14 10 7 8 4 4 4 1 2 2 4 1 5 6 6 5 3 3 3 3 2 1 1 4 5 4 7 5 2 5 3 1 3 3 5 6 7 7 12 17 16 15 14 15 17 20 24 27 32 34 33 33
7 7 7 8 9 10 12 12 12 14 14 14 15 14 11 9 6 4 4 3 7 9 8 9 8 10 11 6 14 21 12 6 7 13 16 15 15 9 5 8 4 2 5 3 2 4 3 2 6 6 4 2 3 4 4 3 2 1 0 2 4 3 5 5 3 5 2 2 3 3 5 4 6 6 10 15 12 12 17 18 17 19 23 26 30 32 32 32
6 8 8 8 10 11 13 13 12 13 14 13 15 15 12 11 8 6 3 2 4 9 10 10 9 13 14 8 16 19 9 7 7 13 20 18 16 12 6 6 3 2 5 4 2 2 3 3 4 3 2 2 2 3 4 3 2 1 2 2 5 4 2 3 4 4 1 1 2 3 4 2 4 5 7 13 13 15 20 23 23 23 24 25 28 30 31 31
7 8 8 10 11 12 14 13 11 13 15 14 14 15 13 12 9 5 3 2 2 7 9 10 10 13 15 11 17 16 5 7 9 13 21 20 16 10 4 4 4 3 3 3 5 1 5 4 2 3 3 2 2 4 3 1 4 3 4 4 5 4 3 5 4 4 3 2 1 2 3 2 2 4 5 8 12 15 19 22 24 24 24 26 28 28 29 28
7 8 9 10 11 12 14 11 11 13 14 13 13 16 14 13 9 4 3 2 1 7 7 9 8 11 16 15 18 12 1 6 11 14 19 18 15 8 2 4 4 3 3 1 3 2 5 3 2 2 4 5 1 4 2 3 3 5 4 6 6 4 4 4 4 5 4 4 1 3 2 3 1 4 3 4 7 10 15 19 20 21 23 26 27 26 26 26
8 9 9 10 10 12 13 10 11 14 13 12 13 15 13 12 8 2 3 3 2 6 6 8 6 9 16 16 18 10 2 5 10 14 18 15 15 8 1 4 2 2 3 2 2 2 2 3 2 2 3 5 4 3 4 4 2 4 3 3 3 2 1 3 3 3 1 3 2 2 1 4 2 2 1 3 5 7 10 13 16 19 21 23 23 23 24 24
8 9 9 11 11 13 13 12 13 14 12 12 14 14 12 11 6 1 3 4 3 4 4 6 5 9 15 15 16 8 1 8 9 12 18 13 14 8 0 4 2 1 2 1 3 1 2 3 4 4 4 4 3 3 2 4 4 3 3 3 2 1 3 4 1 2 3 3 3 0 3 3 3 2 2 2 5 7 7 8 11 15 18 20 21 21 22 21
9 10 10 12 13 14 15 13 13 13 13 13 14 14 12 9 3 2 4 4 3 4 2 6 5 11 16 10 13 11 2 8 7 9 16 12 14 8 1 2 1 3 3 2 2 3 2 1 2 2 4 2 2 3 1 4 1 4 2 2 2 3 3 2 2 3 1 3 4 2 3 2 4 1 2 1 4 5 5 5 7 11 15 18 20 20 20 19
9 10 11 13 13 14 14 13 13 13 14 14 13 13 11 6 1 2 6 3 3 4 2 8 7 13 19 8 9 15 7 7 8 9 11 10 13 9 2 1 3 3 2 2 2 4 1 1 2 1 1 2 4 3 2 4 2 3 1 1 1 2 2 1 2 2 2 2 4 4 2 3 3 2 4 1 2 3 2 3 4 9 14 16 18 18 17 16
9 10 11 12 12 13 13 12 12 13 14 14 12 12 8 4 3 5 5 0 2 4 4 8 6 11 18 8 6 14 8 4 10 12 10 9 14 14 5 1 3 4 1 3 1 5 3 1 0 2 1 2 2 2 2 4 3 3 2 3 3 3 3 3 2 3 3 2 6 5 2 2 2 3 5 1 2 5 4 3 4 8 13 15 16 16 14 13
9 10 11 12 12 12 12 11 12 13 14 13 13 10 4 2 4 6 3 2 1 5 6 6 5 7 11 5 3 10 7 5 11 12 10 8 13 17 9 3 5 5 3 6 5 6 6 3 1 2 2 1 3 3 2 0 2 3 3 4 4 5 3 3 4 3 3 3 5 4 2 2 2 3 1 2 1 6 5 4 4 7 11 13 14 13 12 11
9 10 11 12 12 11 12 12 13 14 13 14 13 8 1 2 5 2 1 5 3 3 4 2 4 5 6 3 2 6 4 5 9 8 4 4 6 8 7 2 4 5 5 5 5 7 6 1 1 3 3 4 4 4 5 3 4 5 4 4 4 5 4 3 4 1 2 4 3 2 4 0 3 2 1 1 4 5 6 7 8 9 11 12 12 11 9 9
10 10 11 12 11 11 12 12 14 13 13 14 10 4 4 5 3 1 3 4 2 2 2 3 4 4 4 4 4 5 3 2 7 6 2 2 4 3 3 3 3 3 3 3 4 6 5 3 4 3 2 5 4 3 5 3 4 6 3 3 3 3 4 5 4 2 4 4 3 2 4 2 1 1 2 2 6 8 11 14 14 14 13 10 8 7 6 6
10 10 10 11 10 11 12 12 13 12 11 12 6 3 7 5 1 1 3 3 2 3 2 2 5 5 2 3 3 4 3 2 5 6 4 3 5 3 4 5 6 3 1 2 3 3 3 4 4 3 3 5 4 2 1 2 3 3 1 3 2 1 1 4 3 3 5 5 5 3 2 2 1 2 2 4 9 11 14 15 15 15 12 9 6 4 3 4
9 8 8 10 11 11 12 11 10 10 9 7 7 7 6 1 3 1 2 4 2 4 4 2 4 5 3 3 3 2 3 2 5 6 5 4 3 2 3 4 6 4 2 3 2 0 1 5 5 2 2 3 3 1 0 2 3 1 1 3 2 1 2 2 3 3 3 4 4 2 1 1 1 1 2 6 8 9 11 12 13 12 11 10 7 4 2 3
6 5 7 10 11 11 11 10 8 9 6 4 8 6 2 2 2 2 1 3 1 3 6 5 5 4 4 4 4 4 3 1 4 4 3 2 1 2 2 1 3 4 3 2 1 1 2 6 6 4 3 2 2 2 2 4 2 1 2 1 2 3 4 0 3 1 2 2 3 1 1 0 1 0 2 5 4 4 6 7 9 9 9 9 7 5 3 4
3 3 8 11 10 10 10 8 7 7 6 9 8 2 2 1 1 2 1 3 2 1 3 4 3 3 3 3 4 6 5 2 3 4 3 1 1 2 3 1 2 4 3 1 1 1 0 5 7 5 3 3 3 2 3 4 1 2 2 4 3 1 4 2 1 4 4 2 4 1 1 2 1 1 4 6 4 3 3 4 6 6 7 8 8 6 5 5
2 4 10 12 10 10 10 9 6 4 9 12 6 2 1 0 0 1 2 3 1 1 4 2 2 2 1 1 4 6 5 4 4 4 3 2 2 3 2 3 3 4 5 3 1 1 1 4 7 2 2 6 4 3 3 3 3 2 2 3 2 2 2 2 1 3 4 4 5 3 3 3 3 2 5 8 7 6 4 4 5 6 7 8 11 10 7 6
2 4 11 14 10 9 11 9 4 7 11 9 3 1 1 1 1 2 3 3 0 1 3 0 1 2 1 1 2 4 4 3 4 4 3 1 3 4 3 2 3 7 8 3 1 2 1 1 5 4 3 5 4 4 4 5 4 3 2 3 3 2 2 1 0 0 1 4 5 4 5 3 2 2 5 8 6 5 4 3 5 7 9 9 12 13 9 8
2 3 9 12 9 7 7 5 9 13 10 4 3 1 0 1 1 2 4 3 1 2 1 1 1 2 3 2 1 2 2 2 2 2 2 1 2 4 5 3 2 7 10 4 2 2 2 1 3 6 5 4 3 2 2 3 3 3 4 4 4 2 1 1 1 1 1 3 3 3 5 4 2 2 2 5 4 4 4 4 4 7 10 11 14 13 10 10
3 3 7 10 8 5 5 9 12 11 5 2 2 1 1 1 2 3 4 3 2 1 0 2 2 0 1 2 2 1 2 2 2 1 1 2 3 3 5 6 3 6 7 4 3 2 2 1 2 5 6 4 3 2 1 3 3 1 2 2 2 2 2 2 4 2 1 1 2 2 6 4 2 4 3 6 5 5 6 5 4 8 11 13 16 14 12 13
7 3 7 9 7 4 8 11 9 5 4 3 2 2 1 1 2 3 4 4 2 1 1 2 1 0 1 1 2 1 2 2 1 1 1 1 3 2 4 8 8 5 2 2 2 1 1 2 0 4 5 5 7 4 1 2 2 4 2 2 1 1 3 0 4 4 3 1 1 1 3 2 1 2 4 6 5 6 7 6 5 9 11 14 16 15 15 15
12 8 7 7 5 6 9 8 5 4 4 2 1 2 3 2 2 3 4 4 3 2 2 1 0 1 1 1 1 1 1 1 2 1 1 0 2 2 4 9 9 5 2 1 2 2 1 2 2 4 5 4 5 4 1 0 4 4 2 3 3 2 2 3 4 1 2 3 2 2 2 1 1 3 6 6 5 5 4 7 10 11 12 15 17 18 19 17
15 16 15 10 4 4 7 4 2 2 1 1 3 4 4 3 4 3 2 3 3 1 1 1 1 2 1 0 0 1 2 1 1 1 2 1 1 3 6 9 6 4 3 1 1 4 3 1 2 4 6 6 6 6 5 4 4 3 3 3 4 4 4 1 1 2 1 2 2 3 3 1 2 4 6 6 6 6 5 8 12 13 15 18 21 22 21 16
8 12 18 17 11 10 10 5 5 4 1 2 4 4 3 3 4 4 2 2 4 2 1 1 2 1 1 1 1 2 1 1 1 2 3 1 1 2 7 9 7 6 4 1 2 4 1 0 2 3 3 5 6 5 6 6 5 2 2 5 5 5 5 2 1 2 1 3 5 3 3 2 2 4 6 6 7 9 9 10 13 15 18 21 23 23 19 12
4 4 9 15 18 20 17 9 6 5 3 3 3 3 3 2 2 4 3 2 4 4 1 1 3 2 1 3 3 3 3 1 1 2 3 2 3 3 6 7 8 9 6 4 7 4 2 1 2 5 3 4 4 7 6 6 5 4 5 7 7 5 4 2 2 2 3 5 5 2 4 7 5 5 7 8 8 10 11 12 14 17 21 24 24 21 15 9
4 2 2 5 10 15 15 13 10 6 3 3 2 2 4 3 3 3 3 2 3 5 2 1 3 3 2 4 3 2 4 3 2 1 1 2 4 4 5 2 6 13 9 5 8 4 4 3 2 3 4 6 6 8 8 4 4 3 6 7 7 7 6 6 4 4 5 5 4 4 8 9 6 5 8 10 9 9 11 15 17 19 23 26 24 16 10 10
5 4 4 5 3 4 6 9 11 10 6 3 3 1 3 4 3 2 2 3 3 5 4 2 4 5 2 2 2 2 5 5 3 1 0 2 3 4 5 2 5 14 13 7 7 5 4 1 1 1 4 8 7 8 5 2 1 2 6 6 7 8 6 6 4 5 5 5 7 8 11 9 4 5 8 9 10 11 13 17 20 22 25 26 21 14 11 14
10 8 7 8 6 4 3 2 6 10 9 5 3 2 3 4 5 2 2 3 3 4 5 3 5 6 3 2 1 2 4 3 3 3 1 2 4 3 4 1 3 12 14 7 5 5 3 1 1 1 4 9 7 5 4 4 3 4 6 7 6 6 5 3 4 6 7 7 8 9 12 7 0 4 7 10 13 14 16 20 22 23 26 25 19 13 12 16
10 9 9 13 11 7 6 3 3 6 6 5 3 2 1 2 4 3 2 1 2 4 4 3 6 6 2 1 3 1 1 2 3 5 2 1 3 1 1 1 2 8 11 4 3 5 4 2 1 3 3 8 5 5 7 5 3 5 7 9 9 8 6 3 5 8 8 7 8 10 12 6 1 6 11 13 16 17 19 23 24 25 27 23 15 12 13 16
14 13 13 13 8 7 6 4 3 4 3 5 3 1 2 1 2 3 2 1 1 2 3 3 6 4 1 1 2 2 3 3 6 9 6 3 3 2 0 0 0 5 7 3 3 5 4 2 2 5 4 6 2 7 11 5 6 7 9 11 10 9 6 4 5 7 6 7 10 11 9 4 3 10 15 15 18 20 21 23 26 28 26 17 11 11 14 18
15 13 11 10 6 5 5 4 4 5 2 2 2 1 2 2 3 2 1 1 0 3 4 3 3 2 2 2 2 3 6 7 8 10 8 6 6 4 3 3 1 1 1 2 2 2 2 2 2 4 3 6 4 8 9 4 5 3 4 6 7 8 6 6 7 8 4 3 6 7 5 4 8 12 12 13 18 20 21 24 29 28 20 12 10 14 17 21
Wind_Direction
90 93 88 61 8 350 350 352 354 355 4 160 158 151 145 142 137 141 314 327 320 314 307 303 308 311 313 313 308 293 289 312 338 354 352 339 329 310 283 267 255 248 245 246 246 246 245 237 235 233 230 228 218 195 174 168 151 147 119 129 217 202 199 192 186 194 177 259 243 197 198 193 233 217 211 243 240 233 237 234 230 230 231 234 238 237 238 226
74 66 47 20 357 347 349 352 353 353 345 210 180 171 168 172 198 280 309 322 319 311 306 304 312 315 316 320 316 293 279 299 318 332 336 332 323 311 284 261 257 253 252 254 250 249 244 235 235 235 227 218 214 203 192 186 162 146 114 151 225 204 207 202 182 192 189 241 215 206 209 202 216 199 191 228 237 220 232 239 230 233 234 235 241 240 241 238
61 46 29 13 0 359 359 4 8 4 0 209 191 193 207 236 271 304 315 319 322 316 309 309 319 324 322 325 328 308 286 304 315 324 327 327 323 321 319 282 266 267 267 268 265 259 247 236 236 234 221 213 213 203 192 184 191 180 137 207 243 215 227 238 206 205 212 229 230 218 209 207 221 208 184 219 255 228 227 237 225 232 241 240 241 241 241 237
54 38 24 14 5 5 5 9 13 9 7 237 206 218 246 278 299 309 316 321 325 321 312 315 326 333 328 326 335 325 306 319 337 343 333 327 326 327 333 321 304 294 290 288 280 270 260 250 248 239 219 218 210 198 198 193 204 180 163 206 229 185 223 257 227 222 219 221 224 192 180 216 228 222 221 223 293 270 242 247 242 246 260 254 245 244 240 235
53 39 27 17 9 6 4 3 359 351 331 288 250 263 276 292 305 311 316 322 329 326 315 317 326 333 331 327 335 330 322 344 358 348 339 331 329 329 331 323 318 315 308 300 289 279 270 265 265 244 222 227 179 181 217 195 183 181 209 230 196 158 198 289 220 208 209 201 198 174 164 214 216 221 230 215 225 254 254 281 283 280 285 264 252 247 240 236
56 45 36 27 18 10 4 359 353 341 315 290 276 280 287 296 306 311 315 322 330 330 323 322 326 332 334 326 326 334 346 13 333 339 340 334 329 327 326 317 315 315 312 309 298 283 272 268 264 238 210 232 184 191 218 188 181 218 260 267 222 196 211 310 197 205 215 205 202 184 200 214 192 238 236 226 236 251 267 284 290 290 279 262 255 249 243 240
59 50 44 36 28 19 9 4 359 354 339 314 295 288 291 296 304 310 314 322 330 332 330 329 330 335 338 329 311 317 329 306 321 334 335 333 332 329 325 318 315 314 314 313 303 287 277 270 257 237 190 337 220 205 220 204 190 202 264 293 236 226 226 264 262 233 227 224 237 215 232 224 211 268 266 252 258 268 280 283 280 271 264 263 254 250 253 249
59 50 44 39 34 26 15 7 360 356 350 342 326 309 303 303 305 308 311 319 326 332 333 332 334 337 339 338 320 306 312 310 313 319 324 330 330 329 328 324 319 317 316 311 306 292 283 277 260 247 215 253 227 202 198 262 233 190 240 284 231 232 239 260 263 245 235 237 246 231 246 246 251 283 275 273 279 287 290 294 290 267 251 250 247 247 250 245
33 26 25 29 29 27 23 14 3 354 344 338 332 323 315 311 309 309 310 314 321 328 330 331 334 338 338 337 336 323 319 324 316 311 315 323 327 328 330 330 325 322 318 312 315 306 289 287 268 255 251 253 215 199 120 198 271 220 239 286 262 252 277 272 253 242 245 248 242 243 265 259 269 305 275 277 284 284 299 323 317 280 242 237 237 239 243 243
354 352 357 6 12 18 18 11 4 356 347 338 330 324 318 313 310 309 310 311 315 319 324 328 331 337 336 330 340 341 325 330 324 316 315 319 326 328 327 328 326 326 322 316 323 331 326 319 300 275 272 277 164 198 137 173 277 319 297 289 268 279 303 280 255 249 247 260 247 241 280 266 226 6 265 262 240 255 296 313 316 300 238 228 228 228 231 232
333 337 339 345 354 1 3 1 356 352 348 343 334 327 321 314 310 311 312 311 311 313 318 324 329 336 334 326 330 315 325 332 325 317 316 318 323 325 325 323 324 326 322 320 324 342 355 345 336 314 280 284 128 287 275 226 299 336 333 298 289 316 314 279 256 254 234 268 262 232 280 271 155 185 245 251 270 288 302 309 311 303 238 218 216 216 206 208
319 325 329 333 339 345 351 353 350 347 346 343 335 324 315 306 304 307 310 311 310 311 313 318 329 336 333 325 318 311 329 335 326 321 319 319 321 324 325 316 316 324 320 319 321 332 348 346 342 323 279 227 272 326 348 357 327 338 14 320 302 342 336 302 298 254 195 245 310 72 296 283 215 229 255 278 293 302 327 327 316 298 234 211 203 198 187 191
323 325 328 327 330 335 341 344 343 341 339 338 331 322 311 300 297 295 300 306 306 308 309 312 323 332 332 325 326 333 329 331 331 327 323 323 324 324 326 315 308 316 314 312 316 325 331 333 342 322 263 213 252 286 291 3 9 313 34 34 314 349 332 317 6 179 167 203 92 87 295 285 253 262 304 329 292 286 312 323 328 319 232 203 187 177 171 164
341 338 333 330 332 333 335 339 342 340 336 335 331 322 315 307 298 292 298 302 301 303 302 307 315 323 326 321 327 338 335 338 335 328 324 323 323 321 325 321 312 312 307 301 308 320 330 338 351 0 33 83 114 155 332 359 25 316 338 32 356 348 288 308 5 145 143 232 161 109 271 270 276 295 353 4 330 315 314 325 335 335 127 161 162 160 156 135
354 353 349 348 344 341 341 345 349 343 337 335 331 323 321 315 302 298 304 306 303 302 300 305 310 313 320 325 333 341 342 338 329 327 327 325 325 321 322 322 315 313 302 290 296 309 323 333 345 21 52 65 64 78 359 347 10 14 320 314 346 176 272 315 355 143 116 243 150 118 247 276 281 299 29 25 13 6 351 352 357 9 124 143 142 138 132 116
8 7 4 1 356 356 356 358 359 351 345 342 334 326 326 324 316 316 321 319 307 298 300 302 309 315 324 340 344 350 349 340 335 332 332 334 333 329 331 332 325 320 307 283 286 292 308 331 10 46 39 40 64 70 27 351 342 5 35 269 286 224 287 325 338 273 63 71 147 160 228 284 273 140 26 6 357 355 347 353 25 101 119 129 124 119 116 109
21 15 11 11 11 11 8 9 9 3 359 352 343 341 347 340 329 332 343 335 317 304 301 301 321 320 344 357 350 352 349 343 341 340 341 341 335 333 334 337 335 325 314 290 284 281 291 329 47 42 33 49 73 75 30 331 307 325 19 263 259 233 262 309 314 307 51 83 253 255 225 259 263 338 356 349 345 340 331 340 31 115 119 119 118 115 112 109
25 17 16 20 20 20 20 18 16 14 12 4 359 4 8 353 329 335 356 348 340 333 335 6 353 329 347 4 5 353 346 342 346 352 351 341 332 331 329 331 332 318 318 303 287 299 300 357 85 19 9 13 38 93 150 254 239 277 286 280 290 282 243 260 286 279 69 40 243 274 265 264 288 340 350 351 352 339 317 325 105 127 122 118 116 112 111 109
21 17 19 19 18 21 22 19 16 17 17 15 15 15 14 4 343 348 360 358 14 20 24 2 11 84 291 351 6 355 348 349 1 0 348 346 340 330 325 328 328 320 334 322 333 22 20 26 56 343 304 290 226 157 206 229 201 233 248 229 266 282 264 243 259 271 254 295 251 255 266 290 333 349 345 352 11 22 25 96 118 123 118 115 112 109 110 108
19 20 18 13 10 10 11 11 10 8 9 14 17 21 18 8 0 326 358 19 47 48 58 9 17 37 340 346 2 358 357 4 12 5 350 349 347 337 338 338 333 357 21 301 312 13 43 27 275 252 247 254 250 211 213 211 174 195 226 248 265 265 280 268 269 306 324 233 271 271 318 346 355 351 343 359 28 44 53 86 101 109 112 111 111 109 108 105
17 17 13 8 4 360 357 357 360 2 2 2 10 27 29 14 18 332 348 33 50 44 48 29 32 28 9 4 359 358 1 13 15 10 0 353 352 346 346 357 10 25 5 301 291 357 51 24 253 250 242 249 265 200 147 110 120 65 258 280 295 252 270 281 280 315 338 157 286 16 54 18 8 360 356 14 35 37 41 73 87 96 104 107 110 108 106 105
11 6 4 1 357 355 352 350 351 357 356 351 5 26 31 21 24 354 347 72 49 43 45 36 47 31 17 11 357 357 2 14 9 10 8 2 4 2 356 21 52 0 342 349 342 356 19 263 259 265 230 182 56 89 99 93 106 44 255 302 301 265 281 307 333 330 5 147 275 14 52 19 10 11 14 23 36 45 52 71 82 90 99 104 109 108 106 107
358 354 352 348 348 347 346 345 342 347 349 350 7 20 21 14 11 5 19 129 52 42 40 33 42 27 20 11 354 356 13 27 3 2 5 3 8 14 21 35 42 342 357 25 64 7 329 265 276 299 188 126 23 40 57 31 9 252 236 282 279 287 312 289 317 330 328 193 252 21 36 357 358 12 27 29 40 57 63 74 78 82 95 105 109 108 107 108
347 346 342 339 340 338 339 339 336 342 346 351 5 12 12 9 5 5 20 138 64 26 30 29 30 23 16 4 353 355 22 30 8 360 1 2 7 10 25 34 24 21 4 48 100 167 272 272 320 10 61 66 305 325 6 332 324 291 226 225 250 280 253 232 293 320 313 330 188 101 33 331 14 26 18 21 42 53 56 66 69 72 90 105 106 104 105 106
341 340 336 337 337 335 338 335 333 340 343 349 360 3 7 4 360 7 29 113 26 354 12 18 19 17 6 356 354 354 86 38 16 4 359 5 9 3 16 26 23 12 312 330 62 303 279 292 320 5 35 46 33 301 290 200 302 315 241 218 230 252 258 257 326 348 354 337 272 109 13 295 1 53 18 359 33 43 42 51 54 61 84 99 98 98 101 103
335 338 338 340 338 338 340 337 335 337 340 347 352 357 1 356 359 38 49 77 19 340 353 2 6 4 357 354 354 357 124 17 2 3 5 7 5 5 6 357 33 31 310 271 2 294 266 337 13 80 57 41 35 304 257 159 89 320 255 198 192 180 251 285 340 359 326 278 271 100 179 264 285 89 64 19 46 46 39 42 44 57 78 91 93 96 101 101
330 334 337 338 337 339 341 339 335 334 339 343 344 350 351 352 8 113 40 49 12 332 336 353 2 354 351 357 5 22 129 340 344 2 9 9 2 9 242 335 26 14 322 62 10 279 216 338 11 54 54 40 16 304 241 126 104 281 247 132 134 257 274 267 262 240 247 278 292 186 153 248 277 182 145 87 72 55 38 35 39 56 75 87 92 97 99 97
326 328 330 334 335 337 340 340 336 335 339 338 339 345 344 352 22 140 74 80 332 335 349 344 347 351 351 0 23 40 49 354 7 353 0 13 7 12 144 358 146 251 331 75 331 284 201 313 317 20 33 22 282 254 179 121 154 271 221 159 246 279 271 240 191 224 294 355 300 265 132 217 270 164 136 119 91 71 49 38 34 57 75 84 91 95 94 91
328 326 327 331 332 337 341 342 341 339 339 340 343 343 339 349 66 97 74 111 310 353 5 345 341 343 351 359 22 23 30 27 22 349 359 24 10 16 132 40 120 175 352 79 241 269 216 267 262 75 65 265 267 266 178 153 256 287 146 164 335 51 38 66 132 163 42 6 266 269 182 192 268 185 170 187 129 136 107 62 44 65 78 84 90 93 91 86
327 324 325 329 333 340 342 342 343 342 342 344 344 343 342 1 83 72 45 298 317 349 326 349 343 333 353 8 4 8 19 20 5 1 14 31 23 34 80 44 60 108 8 11 283 264 301 340 141 72 132 247 297 303 191 177 273 325 33 346 343 25 34 47 71 96 60 297 260 276 241 148 306 210 174 211 174 157 143 100 71 70 77 83 90 91 87 79
329 327 327 333 339 344 344 343 345 343 343 342 342 345 352 26 66 86 56 288 308 350 343 356 343 341 10 36 343 351 359 344 359 14 15 15 24 28 39 26 11 36 7 357 341 309 344 46 73 2 356 351 11 346 332 103 348 25 37 0 334 330 14 32 355 46 81 267 264 294 313 142 241 236 195 322 97 122 125 119 100 77 77 84 90 88 81 71
333 331 332 340 345 346 346 343 343 342 340 341 343 346 40 53 31 85 293 320 333 352 355 322 324 352 4 11 338 334 339 335 356 29 32 14 35 24 29 44 354 10 3 347 337 330 343 12 318 357 26 27 21 344 341 5 30 27 18 28 13 339 0 354 323 332 206 245 245 357 7 219 220 253 332 30 79 94 105 108 104 90 83 87 89 83 73 56
330 333 338 344 346 345 344 340 338 340 338 340 339 351 76 76 32 266 282 329 355 342 332 279 310 341 333 345 350 330 336 337 348 15 35 46 64 33 10 29 36 38 354 335 355 349 336 312 350 24 21 18 34 6 339 326 359 358 356 64 54 8 354 310 294 306 288 272 260 346 1 298 234 20 356 71 94 100 99 94 90 85 81 84 83 73 57 35
332 341 343 344 344 339 338 336 335 338 340 347 355 48 62 67 247 300 302 280 292 333 346 311 320 337 13 19 340 330 1 345 349 10 5 25 48 17 350 1 23 49 344 355 22 12 354 315 342 25 339 353 25 31 310 267 337 332 194 122 94 102 310 281 259 278 294 294 290 303 323 259 231 18 4 107 114 111 103 94 87 82 78 78 77 63 30 12
341 347 346 344 340 337 340 338 341 348 344 4 45 63 73 99 251 288 282 269 303 328 318 339 353 0 11 341 321 15 55 327 340 15 18 33 52 13 3 346 357 29 43 16 344 2 29 274 275 349 338 2 23 327 350 22 357 305 156 83 33 182 185 254 223 220 280 312 308 295 205 193 132 19 66 112 118 118 113 102 91 79 67 63 60 48 20 355
347 351 357 350 343 346 350 347 356 2 356 66 65 55 118 183 242 171 239 307 348 318 319 350 28 25 344 319 327 11 57 295 333 6 14 47 74 358 8 307 342 24 46 45 308 342 12 279 285 356 8 61 56 289 356 22 329 317 42 1 261 183 143 227 281 322 34 333 295 287 158 172 64 103 156 136 132 134 128 113 97 79 59 50 44 33 359 330
359 20 10 0 360 2 0 4 13 16 52 85 80 83 192 187 159 178 308 337 299 304 15 15 14 13 334 315 315 331 352 343 340 7 356 9 46 8 8 1 2 18 30 61 274 288 286 282 307 6 348 318 352 328 8 38 70 42 346 276 265 99 97 98 298 347 13 294 278 317 243 250 226 209 186 173 173 173 160 127 98 69 48 38 25 5 332 317
49 49 18 11 14 13 16 25 20 43 80 77 74 120 160 2 5 253 327 350 293 1 55 41 337 16 13 313 298 309 340 351 347 7 0 345 27 31 26 6 15 27 20 28 301 282 126 291 305 348 284 300 340 29 9 6 56 81 278 285 23 54 351 14 21 336 340 300 293 310 298 247 208 204 190 186 187 181 165 119 76 37 25 19 4 348 318 299
79 53 20 16 18 17 19 27 52 88 81 72 77 115 98 305 357 354 348 356 352 61 58 35 304 2 5 229 284 306 341 359 342 356 14 11 14 33 43 0 358 7 358 10 140 290 52 355 292 286 292 313 357 35 1 333 344 22 6 349 34 132 200 309 350 215 299 293 294 316 321 290 244 238 189 178 175 163 146 96 66 25 6 355 349 340 315 297
94 56 19 15 20 19 15 48 80 75 70 85 152 141 354 338 3 3 6 5 50 77 38 209 192 334 320 313 318 318 344 0 339 346 3 358 2 34 39 27 338 339 340 4 94 348 358 86 269 288 323 351 6 16 352 302 304 352 21 11 355 338 273 307 295 142 126 282 282 321 310 279 305 344 127 118 95 105 90 66 53 11 356 350 344 334 318 310
84 53 13 15 29 40 64 77 66 61 68 98 103 91 5 24 8 3 15 21 55 66 168 167 148 243 304 335 331 314 328 337 358 10 321 357 28 34 20 16 342 322 342 18 48 10 14 92 252 295 334 348 296 282 254 241 229 150 59 43 347 325 11 355 311 318 76 203 200 276 294 280 329 358 69 82 75 83 68 55 25 359 355 354 348 336 325 320
70 55 3 17 38 68 84 70 40 38 88 70 44 53 41 23 13 20 22 24 37 10 39 129 109 121 166 285 298 304 334 317 324 18 331 15 39 16 349 358 345 320 346 11 321 304 131 99 12 284 293 291 291 307 318 234 154 115 82 57 70 23 59 19 278 299 317 274 175 227 279 291 340 13 59 68 85 94 69 46 13 357 354 354 352 340 329 323
63 51 19 30 59 82 85 69 14 23 62 72 120 62 41 43 32 19 16 18 13 354 14 44 19 32 86 288 324 325 330 278 227 1 9 353 22 359 343 352 349 341 12 350 320 349 75 81 25 294 291 304 313 335 8 71 72 63 5 38 67 357 357 212 219 283 304 287 333 288 272 356 79 73 66 69 79 81 54 24 8 355 349 350 348 339 331 323
67 52 42 47 69 86 88 95 84 62 20 13 80 43 21 46 42 20 0 11 12 21 44 20 9 24 357 41 68 271 301 341 292 1 43 80 57 13 2 2 7 23 44 92 315 343 347 36 32 352 340 343 347 350 342 345 32 28 324 6 38 3 351 289 219 40 287 261 338 298 282 17 116 90 62 63 50 20 1 9 4 352 346 343 339 335 329 316
67 51 47 53 73 91 89 104 126 122 121 55 55 23 8 35 36 24 19 32 28 35 67 351 321 298 306 1 354 313 334 21 304 353 31 18 295 5 16 25 39 37 32 33 310 326 324 193 71 66 11 334 332 323 324 336 344 354 357 2 12 11 356 324 302 28 314 321 346 309 285 347 89 81 43 30 17 358 348 355 352 345 342 337 333 331 324 310
68 61 42 48 66 77 75 73 90 108 122 87 57 14 17 10 349 14 29 58 29 20 44 351 323 299 4 27 16 327 328 319 300 7 20 331 281 330 11 37 44 29 19 355 344 357 103 35 64 123 179 254 266 272 299 340 324 321 356 355 355 0 1 58 89 28 320 314 322 304 319 343 11 43 17 3 0 351 344 345 341 338 338 334 331 327 319 315
71 57 11 40 57 62 58 51 57 78 113 104 88 12 0 331 309 3 29 42 17 12 37 73 29 31 357 4 22 319 307 332 5 59 31 303 269 310 346 52 44 21 16 2 354 25 97 12 12 135 222 243 249 276 300 328 288 305 1 354 349 356 16 57 48 340 333 323 304 329 343 341 356 19 1 350 347 344 341 339 336 332 331 330 328 324 320 333
88 91 73 79 67 44 44 38 49 68 68 71 114 80 359 359 354 5 356 347 11 24 29 26 25 29 329 313 30 341 326 349 9 24 353 326 311 331 349 65 53 21 19 24 20 57 109 354 338 141 274 276 280 292 305 326 290 46 31 0 353 358 11 38 10 326 346 326 291 311 328 325 337 359 348 342 339 335 332 331 328 326 327 329 328 325 329 340
104 106 75 79 92 90 88 44 51 66 54 43 80 57 29 30 14 336 269 335 0 21 34 8 332 342 324 259 118 25 348 359 335 306 265 348 348 358 358 347 30 18 20 31 25 44 92 282 296 92 300 296 301 313 328 347 17 65 40 9 6 356 341 352 342 339 345 313 285 303 315 304 3 2 336 333 332 325 322 324 325 327 330 330 326 327 336 340
107 111 102 100 92 66 59 39 36 65 44 26 54 39 25 51 356 316 248 44 353 343 22 6 309 310 301 184 141 92 323 194 235 260 229 6 346 346 44 273 283 1 14 30 358 10 32 333 313 78 339 303 319 355 338 341 70 83 34 14 6 353 342 341 346 347 340 310 296 307 307 292 71 2 332 325 327 326 326 329 330 331 331 328 326 336 342 335
110 114 114 107 80 22 30 29 29 74 40 12 41 22 344 11 327 300 262 188 122 343 348 317 297 306 21 119 149 235 278 237 234 253 253 256 264 233 243 16 2 351 1 23 350 359 33 357 345 57 7 294 317 4 338 349 96 83 33 14 356 344 340 332 335 332 311 297 299 304 305 303 350 338 326 324 331 332 333 333 330 327 327 327 332 343 339 332
113 115 112 105 81 13 21 24 27 67 67 338 358 324 319 328 312 319 324 245 104 18 347 315 298 318 339 0 2 312 310 302 277 274 275 261 249 248 271 294 342 336 319 58 28 0 69 25 340 39 356 289 320 346 331 8 68 40 16 7 339 326 322 316 320 317 298 279 293 298 305 320 327 325 323 325 332 334 334 330 324 320 321 327 337 340 337 333
Height
1530 1530 1530 1530 1529 1529 1529 1529 1528 1528 1527 1527 1527 1527 1527 1527 1527 1526 1526 1526 1526 1525 1525 1525 1524 1524 1523 1523 1522 1521 1521 1521 1520 1520 1519 1519 1519 1519 1518 1518 1518 1517 1517 1517 1517 1517 1517 1517 1517 1517 1518 1518 1518 1518 1518 1518 1519 1519 1522 1526 1525 1527 1525 1520 1520 1521 1517 1515 1516 1516 1517 1517 1517 1518 1518 1519 1519 1519 1519 1519 1519 1519 1519 1519 1519 1520 1520 1521
1530 1530 1530 1530 1530 1530 1529 1529 1529 1528 1528 1528 1528 1528 1528 1528 1527 1527 1527 1526 1526 1526 1525 1525 1525 1524 1523 1522 1521 1521 1521 1520 1520 1520 1519 1519 1519 1519 1519 1518 1518 1517 1517 1517 1517 1517 1517 1517 1517 1517 1517 1518 1518 1518 1518 1518 1519 1520 1525 1526 1522 1522 1519 1515 1516 1516 1515 1515 1515 1516 1517 1517 1517 1517 1518 1518 1518 1518 1518 1517 1518 1518 1517 1517 1518 1519 1519 1520
1531 1531 1531 1531 1530 1530 1530 1530 1529 1529 1529 1528 1529 1529 1528 1528 1528 1527 1527 1527 1526 1526 1525 1525 1524 1524 1523 1522 1521 1520 1520 1520 1520 1520 1519 1519 1519 1519 1518 1518 1518 1517 1517 1517 1517 1517 1517 1517 1517 1517 1517 1517 1517 1518 1518 1518 1519 1519 1523 1523 1518 1517 1515 1514 1514 1514 1515 1515 1516 1517 1516 1517 1517 1518 1518 1517 1517 1517 1516 1515 1516 1516 1515 1515 1516 1517 1518 1519
1532 1532 1532 1531 1531 1531 1531 1530 1530 1529 1529 1529 1529 1529 1529 1529 1528 1528 1527 1527 1526 1526 1525 1525 1524 1523 1522 1521 1521 1520 1519 1519 1519 1519 1519 1519 1519 1518 1518 1518 1518 1517 1517 1517 1517 1517 1516 1516 1516 1516 1517 1517 1517 1518 1518 1517 1518 1519 1519 1517 1515 1516 1515 1513 1513 1514 1515 1515 1516 1516 1517 1517 1516 1517 1517 1516 1516 1513 1512 1512 1513 1513 1513 1514 1515 1515 1516 1517
1533 1532 1532 1532 1532 1531 1531 1531 1531 1530 1530 1530 1530 1529 1529 1529 1528 1528 1527 1527 1526 1526 1525 1524 1524 1523 1522 1521 1521 1520 1520 1520 1520 1520 1520 1519 1519 1518 1518 1518 1517 1517 1517 1516 1516 1516 1516 1516 1516 1516 1516 1516 1517 1517 1517 1517 1517 1518 1516 1514 1514 1515 1514 1513 1513 1514 1514 1515 1515 1516 1516 1515 1515 1515 1514 1515 1514 1509 1509 1510 1511 1512 1512 1513 1513 1513 1515 1516
1533 1533 1533 1532 1532 1532 1532 1532 1531 1531 1531 1530 1530 1530 1529 1529 1529 1528 1528 1527 1527 1526 1525 1525 1524 1523 1522 1521 1521 1520 1520 1521 1521 1520 1520 1519 1519 1518 1518 1518 1517 1517 1517 1516 1516 1516 1516 1516 1516 1516 1516 1516 1516 1516 1515 1516 1517 1516 1514 1514 1514 1514 1513 1513 1513 1513 1514 1514 1514 1514 1513 1513 1514 1513 1513 1513 1509 1507 1508 1510 1510 1511 1511 1512 1512 1512 1513 1514
1534 1534 1534 1533 1533 1533 1533 1532 1532 1532 1531 1531 1530 1530 1530 1529 1529 1528 1528 1527 1527 1526 1525 1525 1524 1523 1522 1521 1521 1520 1521 1521 1521 1520 1520 1520 1519 1519 1518 1518 1517 1517 1517 1516 1516 1516 1516 1515 1515 1515 1515 1515 1515 1515 1515 1515 1516 1516 1514 1513 1513 1513 1513 1513 1513 1513 1513 1513 1512 1512 1512 1512 1512 1512 1512 1508 1504 1506 1508 1508 1508 1509 1510 1511 1511 1511 1512 1513
1535 1535 1535 1534 1534 1534 1533 1533 1532 1532 1531 1531 1530 1530 1530 1529 1529 1528 1528 1527 1527 1526 1525 1524 1524 1523 1522 1521 1521 1521 1521 1521 1521 1521 1520 1520 1519 1519 1518 1518 1517 1517 1516 1516 1516 1516 1515 1515 1515 1515 1515 1515 1515 1515 1515 1515 1515 1515 1514 1513 1513 1513 1512 1512 1512 1512 1512 1511 1511 1511 1511 1511 1511 1511 1510 1504 1502 1506 1507 1507 1506 1506 1507 1509 1509 1511 1512 1513
1536 1536 1535 1535 1535 1534 1534 1533 1533 1532 1531 1531 1530 1530 1529 1529 1529 1528 1528 1527 1527 1526 1525 1524 1523 1523 1522 1521 1520 1520 1520 1521 1521 1520 1520 1520 1519 1518 1518 1518 1517 1517 1516 1516 1516 1515 1515 1515 1514 1514 1514 1514 1514 1514 1515 1515 1514 1514 1514 1513 1513 1512 1512 1511 1511 1511 1510 1510 1510 1510 1510 1511 1511 1511 1507 1502 1503 1505 1505 1505 1504 1503 1505 1506 1508 1510 1511 1512
1536 1536 1535 1535 1535 1534 1534 1533 1533 1532 1531 1531 1530 1530 1529 1529 1528 1528 1527 1526 1526 1525 1525 1524 1523 1523 1522 1521 1521 1521 1521 1521 1520 1520 1520 1519 1519 1519 1518 1518 1517 1517 1516 1516 1515 1515 1515 1515 1515 1515 1514 1514 1514 1515 1516 1515 1514 1514 1514 1512 1512 1511 1510 1510 1509 1509 1509 1509 1509 1509 1510 1509 1511 1511 1505 1500 1503 1504 1504 1504 1503 1503 1504 1506 1508 1509 1511 1512
1536 1536 1536 1535 1535 1534 1534 1533 1533 1532 1531 1531 1530 1529 1529 1528 1528 1527 1526 1526 1525 1525 1524 1524 1523 1522 1522 1522 1522 1522 1521 1521 1520 1520 1520 1519 1519 1519 1518 1518 1517 1517 1516 1516 1516 1515 1515 1515 1515 1515 1514 1514 1515 1515 1515 1515 1514 1514 1513 1511 1510 1510 1509 1508 1508 1508 1508 1509 1509 1510 1509 1509 1511 1510 1502 1500 1503 1503 1503 1503 1503 1503 1503 1505 1507 1509 1511 1511
1537 1536 1536 1535 1535 1534 1534 1533 1532 1532 1531 1530 1530 1529 1528 1528 1527 1527 1526 1525 1524 1524 1524 1524 1523 1523 1522 1522 1522 1522 1521 1521 1520 1520 1520 1519 1519 1518 1518 1517 1517 1517 1516 1516 1516 1515 1515 1515 1515 1515 1514 1515 1515 1515 1514 1514 1514 1513 1513 1511 1510 1509 1508 1507 1508 1508 1509 1509 1509 1510 1508 1505 1507 1504 1499 1501 1503 1502 1503 1503 1503 1504 1504 1505 1508 1509 1510 1511
1537 1537 1536 1536 1535 1535 1534 1533 1532 1531 1531 1530 1529 1528 1527 1527 1527 1526 1525 1525 1524 1524 1524 1523 1523 1523 1522 1522 1522 1522 1521 1521 1521 1520 1520 1519 1519 1518 1518 1517 1517 1517 1516 1516 1516 1515 1515 1515 1515 1514 1514 1514 1515 1514 1514 1514 1513 1512 1514 1513 1511 1509 1507 1508 1509 1508 1509 1509 1509 1510 1507 1502 1502 1500 1500 1503 1502 1502 1503 1504 1504 1504 1504 1506 1508 1509 1510 1511
1538 1537 1537 1536 1536 1535 1534 1533 1532 1532 1531 1530 1528 1527 1527 1526 1526 1525 1525 1525 1524 1524 1523 1523 1523 1523 1522 1522 1522 1522 1521 1521 1520 1520 1519 1519 1518 1518 1518 1517 1516 1516 1516 1516 1515 1515 1515 1514 1514 1514 1514 1514 1514 1514 1514 1515 1514 1514 1513 1514 1517 1514 1507 1507 1510 1509 1509 1510 1510 1511 1509 1504 1501 1501 1503 1503 1502 1503 1504 1505 1505 1505 1505 1507 1508 1509 1510 1511
1538 1537 1537 1536 1536 1535 1534 1533 1533 1532 1531 1529 1528 1527 1526 1525 1525 1524 1524 1524 1524 1523 1523 1523 1522 1522 1522 1522 1522 1522 1522 1521 1520 1519 1519 1518 1518 1517 1517 1517 1516 1515 1515 1515 1515 1515 1514 1514 1514 1514 1514 1514 1514 1515 1515 1515 1515 1517 1513 1512 1520 1519 1509 1508 1510 1510 1509 1510 1511 1511 1510 1506 1503 1504 1505 1504 1504 1505 1505 1506 1506 1506 1507 1507 1508 1509 1510 1511
1538 1538 1537 1537 1536 1535 1534 1534 1533 1532 1531 1529 1528 1526 1525 1525 1524 1524 1524 1524 1523 1523 1522 1522 1522 1522 1522 1522 1522 1522 1521 1521 1520 1519 1518 1517 1517 1517 1516 1516 1515 1515 1514 1514 1514 1514 1514 1514 1514 1514 1514 1514 1516 1515 1516 1516 1516 1520 1519 1514 1517 1518 1515 1511 1509 1512 1512 1511 1512 1511 1509 1506 1503 1505 1505 1505 1505 1505 1505 1506 1507 1507 1507 1508 1509 1510 1511 1512
1539 1538 1538 1537 1536 1536 1535 1534 1533 1532 1531 1529 1527 1526 1525 1525 1524 1524 1524 1523 1523 1522 1522 1522 1522 1521 1522 1522 1522 1522 1521 1520 1519 1518 1518 1517 1517 1516 1516 1515 1515 1514 1514 1514 1513 1513 1513 1513 1514 1514 1515 1517 1518 1517 1518 1519 1515 1518 1523 1520 1518 1519 1518 1514 1509 1512 1513 1512 1512 1512 1511 1506 1503 1505 1506 1506 1506 1505 1506 1506 1508 1509 1508 1509 1510 1511 1512 1513
1540 1539 1538 1538 1537 1536 1536 1535 1534 1532 1531 1529 1527 1527 1526 1525 1524 1524 1524 1523 1522 1521 1521 1522 1521 1522 1523 1523 1523 1523 1521 1520 1519 1519 1518 1517 1516 1515 1515 1514 1514 1514 1513 1513 1513 1513 1513 1513 1514 1515 1517 1518 1519 1518 1520 1519 1515 1517 1520 1520 1519 1520 1521 1517 1512 1512 1513 1513 1512 1512 1511 1506 1506 1509 1509 1508 1507 1505 1505 1506 1507 1509 1509 1510 1511 1512 1513 1514
1540 1540 1539 1538 1538 1537 1536 1535 1534 1533 1532 1530 1529 1527 1527 1525 1524 1524 1524 1523 1523 1523 1523 1524 1523 1525 1526 1524 1524 1524 1521 1520 1519 1519 1518 1517 1516 1515 1514 1514 1513 1513 1513 1513 1513 1513 1514 1514 1515 1516 1516 1517 1517 1519 1518 1517 1518 1519 1520 1521 1519 1519 1519 1517 1513 1513 1515 1513 1512 1512 1510 1509 1512 1514 1511 1509 1507 1505 1505 1506 1508 1509 1510 1511 1512 1513 1515 1516
1541 1540 1539 1539 1538 1537 1537 1536 1535 1534 1532 1531 1530 1528 1527 1526 1525 1525 1525 1524 1524 1525 1526 1526 1526 1526 1526 1525 1525 1523 1521 1520 1520 1519 1518 1517 1516 1515 1514 1513 1513 1513 1514 1515 1514 1515 1516 1516 1517 1517 1517 1518 1520 1522 1521 1521 1523 1522 1521 1521 1520 1520 1517 1513 1512 1515 1516 1512 1511 1514 1513 1515 1520 1519 1516 1512 1508 1508 1508 1509 1510 1511 1512 1512 1514 1515 1516 1518
1542 1541 1540 1539 1539 1538 1537 1536 1535 1534 1533 1532 1531 1529 1528 1528 1527 1526 1526 1526 1527 1527 1527 1527 1527 1526 1526 1526 1525 1523 1521 1521 1520 1520 1518 1517 1516 1514 1514 1514 1514 1514 1516 1518 1517 1517 1518 1517 1518 1520 1521 1522 1523 1524 1524 1523 1523 1521 1521 1520 1520 1521 1516 1512 1515 1516 1516 1513 1513 1516 1515 1519 1525 1522 1519 1516 1512 1513 1513 1513 1513 1514 1514 1515 1515 1516 1518 1520
1542 1541 1541 1540 1539 1538 1538 1537 1536 1535 1533 1533 1531 1530 1530 1529 1528 1528 1527 1527 1527 1527 1527 1527 1527 1527 1527 1526 1525 1524 1522 1521 1521 1520 1519 1518 1516 1514 1515 1516 1516 1517 1519 1519 1518 1519 1519 1518 1520 1523 1524 1524 1523 1524 1523 1521 1522 1521 1522 1521 1519 1519 1517 1513 1516 1517 1517 1513 1512 1514 1514 1520 1526 1524 1521 1519 1518 1519 1517 1516 1517 1517 1517 1517 1517 1518 1519 1521
1542 1542 1541 1540 1540 1539 1538 1537 1536 1535 1534 1533 1531 1530 1530 1529 1529 1528 1528 1528 1528 1528 1528 1528 1528 1528 1527 1526 1525 1524 1523 1523 1522 1520 1519 1518 1517 1516 1516 1518 1519 1519 1520 1520 1519 1520 1518 1518 1522 1525 1524 1523 1522 1522 1522 1521 1521 1520 1521 1521 1517 1518 1518 1513 1513 1516 1516 1515 1514 1515 1516 1521 1526 1524 1523 1523 1521 1522 1520 1519 1519 1519 1519 1519 1520 1521 1521 1522
1543 1542 1541 1541 1540 1539 1538 1537 1536 1535 1534 1533 1532 1531 1530 1529 1528 1528 1528 1528 1529 1529 1529 1529 1528 1528 1528 1527 1526 1525 1524 1524 1524 1522 1521 1519 1518 1518 1518 1520 1520 1520 1522 1523 1522 1521 1519 1520 1524 1524 1523 1522 1520 1520 1521 1520 1520 1519 1519 1519 1516 1516 1518 1516 1516 1517 1515 1515 1516 1516 1514 1519 1526 1526 1525 1526 1524 1523 1523 1522 1521 1522 1523 1522 1522 1523 1523 1524
1543 1543 1542 1541 1540 1539 1538 1537 1536 1535 1534 1533 1532 1531 1530 1529 1528 1528 1528 1529 1530 1530 1529 1529 1529 1529 1529 1528 1526 1525 1525 1525 1525 1524 1522 1521 1520 1520 1520 1521 1520 1520 1523 1524 1523 1521 1521 1523 1524 1522 1521 1522 1520 1519 1520 1519 1521 1519 1517 1517 1517 1517 1518 1518 1518 1517 1513 1511 1513 1514 1507 1511 1525 1529 1528 1529 1527 1527 1527 1525 1525 1526 1526 1525 1525 1526 1526 1526
1544 1543 1542 1541 1540 1539 1537 1536 1535 1534 1533 1532 1532 1531 1530 1529 1528 1528 1528 1531 1533 1533 1531 1530 1530 1530 1529 1529 1526 1525 1525 1525 1526 1526 1524 1522 1521 1521 1521 1522 1522 1522 1523 1524 1523 1522 1522 1523 1524 1522 1521 1521 1521 1520 1520 1522 1522 1518 1517 1520 1521 1520 1520 1519 1519 1518 1513 1509 1512 1515 1507 1509 1522 1529 1530 1531 1531 1531 1530 1529 1530 1529 1528 1528 1528 1528 1529 1528
1543 1543 1542 1541 1540 1538 1537 1536 1535 1534 1533 1532 1531 1530 1529 1528 1528 1527 1528 1534 1538 1537 1535 1532 1532 1532 1531 1530 1528 1525 1527 1527 1526 1526 1525 1524 1522 1521 1521 1522 1523 1523 1524 1524 1521 1521 1523 1522 1522 1522 1521 1521 1520 1519 1521 1523 1521 1517 1521 1524 1521 1520 1520 1519 1520 1520 1518 1515 1515 1515 1513 1512 1516 1525 1531 1532 1532 1533 1533 1533 1533 1533 1531 1531 1531 1531 1531 1531
1543 1542 1541 1540 1539 1538 1537 1536 1534 1533 1532 1532 1531 1529 1529 1527 1527 1527 1529 1540 1544 1539 1537 1535 1533 1534 1532 1531 1529 1528 1530 1530 1527 1526 1526 1524 1523 1521 1522 1523 1524 1524 1525 1525 1521 1521 1523 1522 1521 1522 1522 1521 1521 1521 1524 1524 1520 1519 1524 1525 1523 1522 1521 1521 1522 1521 1524 1523 1513 1511 1517 1512 1512 1527 1534 1532 1533 1535 1536 1537 1536 1535 1534 1533 1533 1533 1533 1533
1543 1542 1541 1540 1539 1537 1536 1535 1534 1533 1532 1531 1530 1529 1528 1526 1527 1527 1530 1541 1545 1540 1540 1537 1534 1535 1533 1531 1531 1531 1531 1530 1530 1529 1527 1526 1524 1522 1523 1524 1525 1525 1526 1526 1523 1522 1523 1523 1524 1524 1523 1523 1523 1524 1526 1525 1522 1522 1525 1524 1523 1524 1524 1524 1523 1521 1525 1523 1510 1508 1515 1507 1508 1530 1536 1531 1534 1536 1537 1539 1537 1537 1537 1535 1535 1535 1535 1535
1542 1541 1540 1539 1538 1537 1536 1535 1534 1533 1531 1530 1529 1528 1527 1526 1527 1530 1537 1544 1545 1542 1540 1538 1537 1539 1536 1533 1532 1532 1533 1532 1532 1530 1527 1528 1526 1524 1524 1525 1525 1526 1526 1526 1524 1523 1524 1525 1525 1526 1525 1525 1526 1526 1526 1526 1525 1524 1525 1521 1519 1522 1525 1526 1526 1526 1523 1515 1508 1511 1516 1509 1506 1523 1533 1531 1532 1534 1537 1539 1539 1539 1538 1537 1537 1537 1537 1536
1542 1541 1540 1539 1538 1537 1536 1535 1533 1532 1531 1530 1529 1527 1527 1528 1530 1538 1546 1548 1546 1544 1541 1541 1543 1542 1541 1541 1538 1535 1535 1534 1533 1532 1530 1531 1529 1527 1526 1527 1527 1525 1525 1526 1524 1523 1523 1524 1525 1526 1527 1527 1526 1525 1525 1527 1527 1525 1524 1520 1516 1516 1519 1521 1523 1524 1516 1506 1510 1518 1520 1514 1508 1519 1532 1534 1533 1535 1537 1539 1540 1540 1539 1539 1539 1538 1538 1538
1541 1540 1539 1539 1538 1537 1535 1535 1533 1532 1531 1529 1528 1527 1527 1530 1538 1550 1553 1548 1546 1548 1548 1548 1547 1545 1546 1547 1544 1541 1540 1537 1535 1536 1537 1537 1537 1537 1538 1539 1538 1531 1530 1533 1531 1525 1521 1523 1527 1528 1528 1529 1527 1524 1524 1525 1526 1525 1524 1522 1518 1516 1517 1514 1513 1518 1514 1506 1513 1522 1518 1512 1516 1529 1538 1538 1537 1538 1538 1540 1540 1540 1540 1540 1540 1540 1539 1539
1541 1540 1539 1538 1538 1537 1535 1535 1533 1532 1530 1529 1528 1527 1528 1534 1549 1561 1559 1551 1551 1553 1553 1552 1550 1549 1549 1545 1544 1546 1543 1540 1539 1538 1540 1540 1541 1544 1546 1547 1547 1541 1539 1540 1538 1533 1524 1522 1527 1527 1527 1530 1529 1527 1526 1525 1525 1526 1527 1526 1524 1526 1526 1520 1517 1521 1517 1509 1516 1524 1517 1512 1521 1536 1542 1539 1540 1540 1540 1541 1541 1541 1541 1541 1541 1541 1540 1540
1541 1540 1540 1538 1537 1537 1535 1534 1533 1531 1530 1529 1527 1527 1532 1544 1558 1563 1560 1557 1557 1556 1555 1556 1553 1550 1549 1546 1548 1549 1544 1542 1543 1541 1540 1540 1541 1544 1546 1547 1548 1547 1545 1542 1544 1545 1536 1527 1526 1527 1529 1531 1531 1531 1532 1530 1529 1532 1534 1531 1529 1529 1531 1528 1523 1521 1518 1517 1520 1520 1515 1516 1524 1535 1542 1541 1541 1542 1541 1542 1542 1542 1543 1543 1542 1542 1541 1541
1541 1540 1540 1538 1537 1536 1535 1534 1533 1531 1530 1529 1529 1533 1543 1555 1563 1563 1562 1561 1561 1559 1557 1557 1554 1548 1546 1549 1552 1552 1548 1545 1545 1544 1542 1544 1546 1548 1550 1550 1551 1550 1546 1545 1548 1550 1544 1534 1530 1532 1533 1533 1532 1533 1535 1532 1530 1533 1535 1532 1531 1532 1533 1532 1530 1531 1534 1532 1525 1520 1525 1535 1539 1541 1543 1543 1542 1543 1543 1543 1544 1544 1544 1544 1543 1543 1542 1541
1541 1540 1540 1539 1538 1536 1535 1534 1532 1532 1530 1529 1534 1546 1556 1561 1563 1564 1564 1564 1564 1563 1559 1554 1554 1550 1547 1549 1550 1551 1551 1548 1547 1545 1544 1548 1551 1552 1554 1553 1554 1554 1550 1550 1552 1551 1547 1537 1531 1534 1534 1534 1535 1534 1535 1533 1530 1532 1534 1532 1534 1537 1536 1534 1535 1540 1542 1535 1526 1523 1530 1541 1544 1541 1543 1544 1543 1544 1544 1544 1545 1544 1544 1544 1543 1543 1542 1541
1541 1541 1540 1539 1538 1536 1536 1534 1533 1532 1530 1529 1539 1555 1564 1564 1565 1566 1566 1565 1565 1566 1561 1555 1555 1556 1554 1553 1550 1550 1551 1549 1549 1547 1546 1550 1552 1553 1556 1555 1556 1557 1555 1555 1554 1554 1554 1543 1534 1537 1535 1533 1536 1535 1534 1536 1535 1534 1535 1534 1536 1537 1536 1538 1539 1537 1536 1533 1526 1523 1529 1536 1536 1533 1540 1546 1544 1544 1545 1544 1545 1545 1544 1545 1544 1543 1542 1541
1541 1541 1540 1539 1538 1537 1536 1534 1534 1533 1531 1535 1549 1562 1566 1566 1566 1567 1566 1566 1566 1566 1563 1560 1559 1560 1560 1558 1554 1554 1554 1549 1550 1551 1550 1551 1552 1555 1557 1557 1557 1557 1557 1557 1554 1555 1558 1549 1538 1539 1539 1535 1536 1535 1534 1536 1537 1536 1537 1537 1537 1537 1536 1540 1542 1539 1540 1540 1531 1527 1533 1536 1531 1530 1540 1545 1542 1544 1545 1544 1545 1545 1544 1545 1544 1543 1542 1541
1541 1541 1541 1540 1539 1538 1537 1535 1535 1533 1532 1543 1558 1564 1565 1567 1567 1567 1567 1566 1567 1565 1564 1565 1565 1562 1562 1562 1559 1559 1559 1555 1555 1556 1553 1553 1554 1557 1560 1559 1558 1557 1557 1557 1556 1555 1558 1554 1543 1538 1539 1537 1534 1537 1539 1540 1538 1537 1538 1538 1539 1542 1543 1544 1545 1544 1544 1542 1535 1531 1527 1526 1532 1536 1539 1540 1540 1543 1544 1544 1545 1545 1544 1544 1543 1542 1541 1540
1541 1541 1541 1541 1540 1539 1538 1536 1536 1536 1541 1554 1563 1564 1566 1567 1566 1567 1567 1566 1567 1566 1565 1568 1568 1565 1563 1563 1563 1563 1562 1560 1560 1559 1557 1557 1557 1558 1562 1563 1560 1559 1557 1556 1558 1557 1557 1558 1550 1540 1538 1538 1537 1541 1545 1545 1543 1540 1540 1542 1544 1545 1545 1546 1546 1546 1545 1540 1540 1539 1526 1524 1538 1541 1536 1540 1542 1543 1544 1545 1545 1545 1545 1544 1542 1541 1540 1539
1541 1542 1543 1542 1541 1540 1539 1538 1541 1547 1554 1561 1564 1565 1567 1567 1566 1567 1567 1566 1567 1566 1567 1568 1567 1567 1565 1564 1564 1566 1564 1562 1561 1561 1560 1559 1558 1559 1563 1564 1563 1561 1558 1556 1558 1560 1558 1560 1557 1549 1543 1540 1540 1544 1546 1546 1546 1544 1544 1547 1550 1550 1548 1550 1549 1548 1549 1544 1542 1543 1531 1528 1542 1543 1539 1543 1544 1543 1546 1546 1546 1546 1544 1543 1542 1541 1540 1539
1542 1544 1545 1543 1542 1542 1540 1544 1552 1556 1559 1563 1564 1566 1567 1567 1567 1567 1567 1567 1567 1566 1567 1568 1568 1568 1568 1566 1565 1567 1566 1563 1562 1561 1561 1562 1563 1564 1565 1565 1564 1562 1560 1559 1560 1561 1560 1562 1561 1554 1547 1543 1543 1546 1547 1547 1546 1546 1547 1550 1552 1552 1553 1555 1551 1548 1550 1547 1543 1543 1536 1536 1546 1546 1543 1545 1545 1546 1547 1546 1546 1546 1544 1544 1542 1541 1540 1538
1544 1546 1546 1544 1544 1543 1542 1549 1558 1560 1563 1566 1567 1567 1568 1567 1568 1568 1567 1567 1567 1567 1567 1567 1568 1567 1567 1568 1567 1566 1566 1563 1562 1561 1562 1563 1566 1567 1566 1565 1563 1562 1561 1561 1561 1560 1560 1562 1561 1554 1547 1544 1544 1546 1547 1547 1546 1547 1550 1553 1555 1556 1556 1557 1555 1554 1553 1547 1545 1544 1538 1539 1547 1547 1546 1548 1547 1547 1547 1546 1547 1545 1544 1544 1542 1541 1540 1537
1546 1547 1546 1545 1545 1544 1545 1552 1560 1563 1566 1567 1566 1567 1568 1568 1569 1568 1569 1568 1568 1569 1568 1568 1569 1568 1568 1569 1568 1567 1566 1562 1561 1563 1564 1565 1566 1567 1567 1565 1563 1563 1562 1562 1562 1560 1558 1560 1560 1555 1552 1548 1546 1547 1547 1546 1549 1552 1553 1556 1558 1559 1559 1557 1557 1560 1555 1547 1547 1548 1540 1540 1547 1548 1548 1549 1548 1548 1548 1547 1546 1545 1544 1543 1541 1540 1538 1536
1547 1548 1548 1548 1546 1546 1550 1556 1559 1562 1566 1567 1567 1569 1569 1569 1569 1569 1570 1570 1570 1570 1569 1569 1569 1568 1569 1569 1567 1568 1567 1564 1563 1565 1566 1566 1567 1567 1566 1565 1564 1564 1563 1564 1564 1561 1560 1562 1561 1559 1562 1563 1559 1557 1553 1551 1554 1555 1556 1560 1561 1562 1563 1559 1556 1558 1556 1551 1553 1552 1544 1542 1546 1549 1550 1550 1550 1549 1548 1546 1546 1545 1544 1542 1540 1539 1536 1535
1548 1550 1552 1552 1551 1551 1555 1560 1560 1562 1566 1566 1567 1571 1572 1570 1570 1570 1570 1570 1570 1570 1570 1570 1569 1568 1569 1568 1568 1567 1567 1567 1566 1566 1567 1567 1567 1567 1567 1565 1566 1565 1564 1564 1563 1562 1563 1565 1565 1564 1565 1566 1564 1561 1558 1560 1561 1558 1558 1562 1563 1565 1567 1562 1559 1560 1561 1560 1556 1551 1548 1548 1548 1551 1552 1551 1551 1550 1548 1547 1545 1544 1543 1541 1540 1537 1535 1534
1549 1553 1557 1556 1555 1556 1559 1562 1562 1563 1565 1566 1568 1573 1573 1571 1571 1570 1570 1570 1570 1570 1570 1570 1570 1570 1569 1569 1569 1568 1568 1569 1568 1567 1570 1570 1569 1568 1566 1566 1567 1565 1565 1564 1562 1564 1564 1563 1568 1571 1565 1563 1565 1562 1561 1564 1564 1562 1564 1566 1566 1567 1565 1562 1562 1562 1563 1565 1558 1549 1549 1551 1552 1555 1555 1553 1552 1550 1548 1547 1545 1543 1542 1540 1538 1536 1535 1533
1551 1556 1559 1558 1559 1562 1564 1564 1565 1566 1566 1567 1571 1575 1574 1573 1572 1571 1571 1571 1570 1570 1570 1569 1570 1572 1573 1572 1571 1569 1568 1568 1567 1569 1572 1572 1571 1569 1566 1566 1567 1566 1566 1564 1563 1566 1565 1564 1571 1574 1567 1563 1566 1564 1563 1564 1564 1566 1569 1570 1569 1568 1565 1565 1566 1564 1564 1567 1561 1552 1551 1552 1555 1557 1556 1554 1553 1551 1549 1548 1546 1544 1542 1539 1537 1535 1533 1532
1553 1557 1560 1560 1562 1566 1568 1567 1568 1567 1567 1569 1572 1575 1575 1574 1573 1574 1574 1572 1571 1571 1571 1570 1571 1572 1573 1573 1572 1571 1571 1569 1569 1571 1572 1572 1572 1571 1568 1567 1567 1567 1567 1566 1566 1568 1566 1566 1573 1576 1569 1564 1563 1564 1564 1563 1564 1568 1572 1572 1571 1569 1567 1566 1566 1563 1564 1564 1559 1555 1553 1553 1556 1557 1555 1554 1553 1551 1550 1548 1545 1543 1540 1538 1536 1534 1533 1531
1554 1556 1559 1560 1563 1567 1568 1569 1569 1568 1569 1570 1572 1575 1577 1575 1574 1575 1575 1573 1572 1572 1572 1572 1572 1572 1573 1573 1572 1572 1573 1573 1572 1573 1572 1573 1573 1572 1572 1571 1570 1569 1568 1568 1570 1569 1566 1567 1574 1576 1570 1562 1561 1563 1563 1562 1564 1569 1572 1572 1569 1568 1566 1566 1564 1563 1563 1561 1557 1555 1553 1551 1554 1556 1554 1554 1552 1550 1548 1545 1543 1541 1539 1536 1535 1533 1532 1530
1556 1557 1559 1560 1564 1569 1569 1569 1570 1569 1571 1573 1574 1576 1577 1576 1576 1575 1574 1574 1574 1573 1573 1573 1572 1572 1573 1573 1572 1572 1573 1573 1573 1572 1572 1573 1573 1572 1573 1573 1574 1573 1571 1572 1573 1571 1570 1571 1573 1575 1568 1560 1560 1563 1561 1562 1565 1569 1573 1573 1570 1568 1567 1565 1564 1563 1563 1561 1558 1556 1553 1552 1555 1555 1552 1552 1550 1548 1546 1544 1541 1539 1537 1535 1534 1532 1531 1529
1558 1559 1560 1560 1565 1571 1571 1571 1571 1570 1573 1577 1577 1577 1576 1575 1576 1576 1573 1573 1574 1574 1574 1573 1572 1572 1571 1571 1571 1571 1571 1571 1570 1570 1570 1571 1572 1572 1573 1573 1574 1574 1573 1575 1576 1576 1577 1573 1571 1575 1569 1557 1559 1564 1562 1561 1562 1566 1574 1575 1571 1569 1566 1564 1564 1561 1561 1562 1561 1557 1556 1556 1556 1555 1552 1549 1547 1546 1545 1542 1539 1536 1535 1534 1533 1531 1530 1527